Home   Weather   Wroclaw   Past weeks

Flag for Poland Past Weather in Wroclaw, Poland — Yesterday and Last 2 Weeks

Now
43 °F

Sunny.


Feels Like: 39 °F
Forecast: 40 / 46 °F
Wind: 7 mph from South

Location: Wroclaw Ii

Current Time: Apr 25, 2017 at 7:07:38 am

Latest Report: Apr 25, 2017 at 6:30 am


Visibility: 10 mi

Pressure: 29.65 "Hg

Humidity: 76%

Dew Point: 36 °F

Location of WroclawLocation

Past Weather in Wroclaw — Graph

°F

Wroclaw Temperature Yesterday

Maximum temperature yesterday: 55 °F (at 4:00 pm)
Minimum temperature yesterday: 36 °F (at 6:30 am)
Average temperature yesterday: 46 °F

High & Low Weather Summary for the Past Weeks

 TemperatureHumidityPressure
High73 °F (Apr 10, 3:00 pm)100% (Apr 10, 6:00 am)30.48 "Hg (Apr 10, 6:00 am)
Low30 °F (Apr 19, 6:30 am)36% (Apr 10, 2:00 pm)29.68 "Hg (Apr 25, 5:00 am)
Average45 °F69%30.04 "Hg
* Reported Apr 10 6:00 am — Apr 25 6:00 am, Wroclaw, Weather by CustomWeather, © 2017

Note: Actual official high and low records may vary slightly from our data, if they occured in-between our weather recording intervals... More about our weather records

Advertising

Wroclaw Weather History for the Previous 24 Hours

Scroll right to see more
 ConditionsComfort  
Time TempWeatherWind HumidityBarometerVisibility
6:00 am
Tue, Apr 25
43 °FSunny.9 mph76%29.68 "Hg10 mi
5:30 am45 °FClear.9 mph71%29.68 "Hg10 mi
5:00 am45 °FClear.8 mph71%29.68 "Hg10 mi
4:30 am41 °FClear.9 mph81%29.71 "Hg10 mi
4:00 am43 °FClear.7 mph76%29.71 "Hg10 mi
3:00 am46 °FClear.6 mph66%29.74 "Hg10 mi
2:30 am46 °FClear.7 mph66%29.74 "Hg10 mi
2:00 am46 °FClear.7 mph62%29.77 "Hg10 mi
1:30 am45 °FPassing clouds.5 mph66%29.77 "HgN/A
1:00 am46 °FClear.3 mph62%29.80 "Hg10 mi
12:30 am45 °FClear.6 mph66%29.80 "Hg10 mi
12:00 am46 °FClear.6 mph62%29.80 "Hg10 mi
11:30 pm
Mon, Apr 24
46 °FClear.6 mph62%29.83 "Hg10 mi
11:00 pm45 °FClear.6 mph61%29.83 "Hg10 mi
10:30 pm48 °FClear.6 mph54%29.83 "Hg10 mi
10:00 pm46 °FClear.3 mph57%29.86 "Hg10 mi
9:30 pm50 °FClear.5 mph50%29.86 "Hg10 mi
9:00 pm50 °FClear.5 mph50%29.86 "Hg10 mi
8:30 pm52 °FClear.7 mph47%29.86 "Hg10 mi
8:00 pm52 °FSunny.7 mph47%29.86 "Hg10 mi
7:30 pm54 °FSunny.8 mph44%29.86 "Hg10 mi
7:00 pm54 °FPassing clouds.10 mph44%29.89 "HgN/A
6:30 pm55 °FSunny.13 mph41%29.89 "Hg10 mi
6:00 pm55 °FSunny.14 mph38%29.89 "Hg10 mi
5:30 pm55 °FPassing clouds.12 mph38%29.89 "HgN/A
5:00 pm55 °FPassing clouds.12 mph38%29.92 "HgN/A
4:30 pm55 °FPassing clouds.10 mph38%29.92 "HgN/A
4:00 pm55 °FSunny.6 mph38%29.95 "Hg10 mi
3:30 pm54 °FPassing clouds.10 mph44%29.95 "HgN/A
3:00 pm54 °FPassing clouds.9 mph44%29.98 "HgN/A
2:30 pm52 °FPassing clouds.5 mph44%29.98 "HgN/A
2:00 pm52 °FPassing clouds.9 mph44%30.01 "HgN/A
1:30 pm50 °FPassing clouds.5 mph50%30.04 "HgN/A
1:00 pm50 °FPassing clouds.9 mph47%30.04 "HgN/A
12:30 pm48 °FPassing clouds.9 mph50%30.07 "HgN/A
12:00 pm48 °FPassing clouds.9 mph50%30.07 "HgN/A
11:30 am45 °FScattered clouds.12 mph53%30.09 "HgN/A
11:00 am46 °FScattered clouds.12 mph57%30.09 "HgN/A
10:30 am45 °FScattered clouds.10 mph61%30.09 "HgN/A
10:00 am45 °FScattered clouds.10 mph61%30.09 "HgN/A
9:30 am43 °FPassing clouds.12 mph71%30.09 "HgN/A
9:00 am43 °FPassing clouds.12 mph71%30.09 "HgN/A
8:30 am41 °FPassing clouds.13 mph76%30.09 "HgN/A
8:00 am41 °FPassing clouds.9 mph76%30.09 "HgN/A
7:30 am39 °FSunny.8 mph81%30.09 "Hg10 mi
7:00 am37 °FSunny.8 mph81%30.09 "Hg10 mi
Weather by CustomWeather, © 2017

See weather overviewHow to use our weather pages